Skip Page Navigation
NASA JPL Caltech
NASA Logo - Jet Propulsion Laboratory + View the NASA Portal
+ Center for Near-Earth Object Studies
JPL Home Earth Solar System Stars & Galaxies Technology
JPL Solar System Dynamics
BODIES ORBITS EPHEMERIDES TOOLS PHYSICAL DATA DISCOVERY FAQ SITE MAP
IMPORTANT: The SSD Announcement email list is now available. Major changes are coming in the near future, including possible hostname and/or URL changes. To be notified of such changes, subscribe to this email list.

Please visit this page for more details.


JPL Small-Body Database Browser
Search: [ help ]  
461098 (2015 BP75)
Classification: Main-belt Asteroid          SPK-ID: 2461098
Ephemeris | Orbit Diagram | Orbital Elements | Mission Design | Physical Parameters | Discovery Circumstances ]

[ show orbit diagram ]
Orbital Elements at Epoch 2458600.5 (2019-Apr-27.0) TDB
Reference: JPL 12 (heliocentric ecliptic J2000)
 Element Value Uncertainty (1-sigma)   Units 
e .1339182929434614 1.6078e-07  
a 3.075421746977189 9.831e-08 au
q 2.663566516540806 5.5682e-07 au
i 14.06437286910879 8.8447e-06 deg
node 108.0399599694149 4.8088e-05 deg
peri 267.9264568440855 5.8216e-05 deg
M 25.8977058150419 3.1866e-05 deg
tp 2458458.785515660709
(2018-Dec-06.28551566)
0.00017315 TDB
period 1969.951111751102
5.39
9.4458e-05
2.586e-07
d
yr
n .1827456518349806 8.7626e-09 deg/d
Q 3.487276977413572 1.1148e-07 au
  Orbit Determination Parameters
   # obs. used (total)      84  
   data-arc span      5412 days (14.82 yr)  
   first obs. used      2004-01-15  
   last obs. used      2018-11-09  
   planetary ephem.      DE431  
   SB-pert. ephem.      SB431-N16  
   condition code      0  
   norm. resid. RMS      .59508  
   source      ORB  
   producer      Otto Matic  
   solution date      2019-Jul-14 16:20:02  

Additional Information
 Earth MOID = 1.71079 au 
 Jupiter MOID = 2.12746 au 
 T_jup = 3.170 
[ show covariance matrix ]

Ephemeris | Orbit Diagram | Orbital Elements | Mission Design | Physical Parameters | Discovery Circumstances ]

Physical Parameter Table
Parameter Symbol Value Units Sigma Reference Notes
absolute magnitude H 16.0   n/a MPO456231  

461098 (2015 BP75)          Discovered 2004-Jan-15 by Spacewatch at Kitt Peak
Reference: Last Updated: 2016-02-25

Alternate Designations
 2015 BP75 = 2004 AQ19 
Ephemeris | Orbit Diagram | Orbital Elements | Mission Design | Physical Parameters | Discovery Circumstances ]
ABOUT SSD CREDITS/AWARDS PRIVACY/COPYRIGHT GLOSSARY LINKS
FirstGov 2019-Oct-15 07:51 UT
(server date/time)  
NASA Home Page
Site Manager:   Ryan S. Park
Webmaster  Alan B. Chamberlin